Weather History for Amsterdam, Netherlands

Change the Weather History Date:

Sunday, January 5, 2014

  Actual Average Record
Temperature  
Mean Temperature 40 °F -  
Max Temperature 45 °F 41 °F 55 °F (1999)
Min Temperature 35 °F 33 °F 15 °F (1997)
Degree Days  
Heating Degree Days 25    
Moisture  
Dew Point 39 °F    
Average Humidity 85    
Maximum Humidity 93    
Minimum Humidity 72    
Precipitation  
Precipitation 0.00 in - - ()
Sea Level Pressure  
Sea Level Pressure 29.61 in    
Wind  
Wind Speed 12 mph ()    
Max Wind Speed 24 mph    
Max Gust Speed -    
Visibility 8.6 miles    
Events Rain    
Averages and records for this station are not official NWS values.
T = Trace of Precipitation, MM = Missing Value Source: Averaged Metar Reports

Daily Weather History Graph

Daily Weather History Graph

Search for Another Location

Airport:

Trip Planner

Search our weather history database for the weather conditions in past years. The results will help you decide how hot, cold, wet, or windy it might be!

Date:

Astronomy

Jan. 05, 2014 Rise Set
Actual Time 8:49 AM CET 4:43 PM CET
Civil Twilight 8:09 AM CET 5:23 PM CET
Nautical Twilight 7:25 AM CET 6:07 PM CET
Astronomical Twilight 6:44 AM CET 6:48 PM CET
Moon 10:43 AM CET (1/5) 10:36 PM CET (1/5)
Length of Visible Light 9h 14m
Length of Day
7h 53m
Waxing Crescent, 22% of the Moon is Illuminated
Jan 5
Waxing Crescent
Jan 8
First Quarter
Jan 16
Full
Jan 24
Last Quarter
Jan 30
New

Hourly Weather History & Observations

Time (CET) Temp. Windchill Dew Point Humidity Pressure Visibility Wind Dir Wind Speed Gust Speed Precip Events Conditions
12:00 AM 47 °F - 44 °F 85% 29.36 in 15 mi SW 15.7 mph - - Rain Drizzle
12:25 AM 46.4 °F 40.7 °F 44.6 °F 93% 29.36 in 6.2 mi SW 12.7 mph - N/A   Scattered Clouds
12:55 AM 46.4 °F 39.8 °F 42.8 °F 87% 29.39 in 6.2 mi WSW 16.1 mph - N/A   Scattered Clouds
1:00 AM 47 °F - 43 °F 82% 29.39 in 25 mi SW 15.7 mph - - Rain Drizzle
1:25 AM 46.4 °F 40.1 °F 42.8 °F 87% 29.39 in 6.2 mi WSW 15.0 mph - N/A   Scattered Clouds
1:55 AM 46.4 °F 40.4 °F 42.8 °F 87% 29.39 in 6.2 mi West 13.8 mph - N/A   Mostly Cloudy
2:00 AM 46 °F - 42 °F 83% 29.42 in 22 mi West 13.4 mph - -   Overcast
2:25 AM 44.6 °F 38.8 °F 41.0 °F 87% 29.42 in 6.2 mi West 11.5 mph - N/A   Scattered Clouds
2:55 AM 44.6 °F 39.2 °F 41.0 °F 87% 29.42 in 6.2 mi West 10.4 mph - N/A   Partly Cloudy
3:00 AM 45 °F - 41 °F 82% 29.45 in 22 mi West 8.9 mph - -   Overcast
3:25 AM 44.6 °F 38.4 °F 41.0 °F 87% 29.44 in 6.2 mi West 12.7 mph - N/A   Partly Cloudy
3:55 AM 44.6 °F 39.7 °F 39.2 °F 81% 29.47 in 6.2 mi West 9.2 mph - N/A   Partly Cloudy
4:00 AM 44 °F - 40 °F 80% 29.49 in 18 mi West 11.2 mph - -   Mostly Cloudy
4:25 AM 42.8 °F 37.5 °F 39.2 °F 87% 29.47 in 6.2 mi WSW 9.2 mph - N/A   Partly Cloudy
4:55 AM 42.8 °F 37.5 °F 39.2 °F 87% 29.50 in 6.2 mi WSW 9.2 mph - N/A   Partly Cloudy
5:00 AM 43 °F - 39 °F 82% 29.52 in 17 mi WSW 8.9 mph - -  
5:25 AM 42.8 °F 37.5 °F 39.2 °F 87% 29.50 in 6.2 mi WSW 9.2 mph - N/A   Partly Cloudy
5:55 AM 42.8 °F 37.0 °F 39.2 °F 87% 29.53 in 6.2 mi WSW 10.4 mph - N/A   Partly Cloudy
6:00 AM 43 °F - 40 °F 84% 29.54 in 14 mi WSW 11.2 mph - -   Scattered Clouds
6:25 AM 42.8 °F 37.5 °F 39.2 °F 87% 29.53 in 6.2 mi WSW 9.2 mph - N/A   Partly Cloudy
6:55 AM 42.8 °F 37.5 °F 37.4 °F 81% 29.53 in 6.2 mi WSW 9.2 mph - N/A   Partly Cloudy
7:00 AM 42 °F - 37 °F 78% 29.57 in 19 mi WSW 8.9 mph - -   Partly Cloudy
7:25 AM 41.0 °F 35.2 °F 35.6 °F 81% 29.56 in 6.2 mi WSW 9.2 mph - N/A   Partly Cloudy
7:55 AM 37.4 °F 30.8 °F 35.6 °F 93% 29.56 in - SW 9.2 mph - N/A   Clear
8:00 AM 36 °F - 34 °F 91% 29.60 in 22 mi SSW 8.9 mph - -   Mostly Cloudy
8:25 AM 35.6 °F 28.6 °F 33.8 °F 93% 29.59 in 6.2 mi SSW 9.2 mph - N/A   Partly Cloudy
8:55 AM 37.4 °F 30.8 °F 35.6 °F 93% 29.62 in 6.2 mi SSW 9.2 mph - N/A   Partly Cloudy
9:00 AM 37 °F - 35 °F 92% 29.63 in 19 mi South 8.9 mph - -   Overcast
9:25 AM 37.4 °F 31.4 °F 35.6 °F 93% 29.62 in 6.2 mi South 8.1 mph - N/A   Partly Cloudy
9:55 AM 39.2 °F 33.0 °F 35.6 °F 87% 29.65 in 6.2 mi South 9.2 mph - N/A   Partly Cloudy
10:00 AM 38 °F - 36 °F 91% 29.66 in 17 mi SSW 8.9 mph - -   Scattered Clouds
10:25 AM 41.0 °F 33.9 °F 39.2 °F 93% 29.65 in 6.2 mi SSW 12.7 mph - N/A   Partly Cloudy
10:55 AM 41.0 °F 33.5 °F 39.2 °F 93% 29.65 in 6.2 mi SSW 13.8 mph - N/A   Partly Cloudy
11:00 AM 42 °F - 39 °F 85% 29.67 in 16 mi SSW 13.4 mph - -   Scattered Clouds
11:25 AM 42.8 °F 35.8 °F 39.2 °F 87% 29.65 in 6.2 mi SSW 13.8 mph - N/A   Partly Cloudy
11:55 AM 42.8 °F 35.1 °F 39.2 °F 87% 29.65 in 6.2 mi SSW 16.1 mph - N/A   Partly Cloudy
12:00 PM 44 °F - 40 °F 79% 29.68 in 15 mi SSW 15.7 mph - -  
12:25 PM 44.6 °F 37.8 °F 39.2 °F 81% 29.68 in 6.2 mi SW 15.0 mph - N/A   Partly Cloudy
12:55 PM 44.6 °F 37.4 °F 39.2 °F 81% 29.68 in 6.2 mi SSW 16.1 mph - N/A   Partly Cloudy
1:00 PM 46 °F - 40 °F 72% 29.69 in 17 mi SSW 13.4 mph - -   Partly Cloudy
1:25 PM 46.4 °F 40.1 °F 39.2 °F 76% 29.68 in 6.2 mi SSW 15.0 mph - N/A   Partly Cloudy
1:55 PM 44.6 °F 38.1 °F 39.2 °F 81% 29.68 in 6.2 mi SSW 13.8 mph - N/A   Partly Cloudy
2:00 PM 45 °F - 40 °F 75% 29.71 in 22 mi SSW 13.4 mph - -   Scattered Clouds
2:25 PM 44.6 °F 38.4 °F 39.2 °F 81% 29.71 in 6.2 mi SSW 12.7 mph - N/A   Partly Cloudy
2:55 PM 44.6 °F 38.4 °F 39.2 °F 81% 29.71 in 6.2 mi SSW 12.7 mph - N/A   Partly Cloudy
3:00 PM 44 °F - 40 °F 79% 29.74 in 19 mi SSW 13.4 mph - -   Overcast
3:25 PM 42.8 °F 36.2 °F 39.2 °F 87% 29.74 in 6.2 mi South 12.7 mph - N/A   Partly Cloudy
3:55 PM 42.8 °F 35.4 °F 39.2 °F 87% 29.74 in 6.2 mi South 15.0 mph - N/A   Partly Cloudy
4:00 PM 43 °F - 39 °F 80% 29.76 in 19 mi South 15.7 mph - -   Partly Cloudy
4:25 PM 42.8 °F 37.0 °F 39.2 °F 87% 29.74 in 6.2 mi South 10.4 mph - N/A   Partly Cloudy
4:55 PM 42.8 °F 36.2 °F 39.2 °F 87% 29.74 in 6.2 mi South 12.7 mph - N/A   Partly Cloudy
5:00 PM 42 °F - 38 °F 82% 29.74 in 22 mi South 13.4 mph - -   Partly Cloudy
5:25 PM 41.0 °F 32.8 °F 37.4 °F 87% 29.71 in 6.2 mi South 16.1 mph - N/A   Scattered Clouds
5:55 PM 41.0 °F 33.5 °F 37.4 °F 87% 29.71 in 6.2 mi South 13.8 mph - N/A   Scattered Clouds
6:00 PM 41 °F - 37 °F 82% 29.73 in 22 mi South 13.4 mph - -   Mostly Cloudy
6:25 PM 41.0 °F 32.8 °F 37.4 °F 87% 29.71 in 6.2 mi South 16.1 mph - N/A   Scattered Clouds
6:55 PM 41.0 °F 33.5 °F 37.4 °F 87% 29.71 in 6.2 mi South 13.8 mph - N/A   Partly Cloudy
7:00 PM 40 °F - 37 °F 85% 29.71 in 22 mi SSE 13.4 mph - -   Partly Cloudy
7:25 PM 41.0 °F 33.5 °F 37.4 °F 87% 29.68 in 6.2 mi South 13.8 mph - N/A   Scattered Clouds
7:55 PM 41.0 °F 33.5 °F 37.4 °F 87% 29.68 in 6.2 mi SSE 13.8 mph - N/A   Partly Cloudy
8:00 PM 40 °F - 37 °F 86% 29.70 in 22 mi SSE 15.7 mph - -   Overcast
8:25 PM 41.0 °F 32.8 °F 37.4 °F 87% 29.68 in 6.2 mi South 16.1 mph - N/A   Partly Cloudy
8:55 PM 41.0 °F 32.5 °F 37.4 °F 87% 29.68 in - South 17.3 mph - N/A   Clear
9:00 PM 41 °F - 37 °F 82% 29.69 in 22 mi South 17.9 mph - -   Overcast
9:25 PM 41.0 °F 32.8 °F 37.4 °F 87% 29.68 in - South 16.1 mph - N/A   Clear
9:55 PM 41.0 °F 32.5 °F 37.4 °F 87% 29.65 in - South 17.3 mph - N/A   Clear
10:00 PM 42 °F - 37 °F 78% 29.66 in 25 mi South 17.9 mph - -   Overcast
10:25 PM 41.0 °F 32.2 °F 37.4 °F 87% 29.62 in - SSE 18.4 mph - N/A   Clear
10:55 PM 41.0 °F 32.2 °F 37.4 °F 87% 29.62 in - SSE 18.4 mph - N/A   Clear
11:00 PM 42 °F - 38 °F 79% 29.63 in 22 mi South 20.1 mph - -   Mostly Cloudy
11:25 PM 42.8 °F 33.8 °F 37.4 °F 81% 29.62 in 6.2 mi South 21.9 mph - N/A   Mostly Cloudy
11:55 PM 42.8 °F 33.3 °F 37.4 °F 81% 29.59 in 6.2 mi SSE 24.2 mph - N/A   Mostly Cloudy